TimeCDT,TemperatureF,Dew PointF,Humidity,Sea Level PressureIn,VisibilityMPH,Wind Direction,Wind SpeedMPH,Gust SpeedMPH,PrecipitationIn,Events,Conditions,WindDirDegrees,DateUTC
12:26 AM,32.0,28.4,87,30.11,3.0,North,12.7,-,0.00,Snow,Light Snow,360,2013-04-18 05:26:00
12:53 AM,30.9,28.0,89,30.15,2.5,NNW,13.8,-,0.00,Snow,Light Snow,340,2013-04-18 05:53:00
1:14 AM,30.2,28.4,93,30.09,1.5,NNW,13.8,-,0.01,Snow,Light Snow,340,2013-04-18 06:14:00
1:53 AM,30.0,27.0,88,30.11,1.2,North,18.4,-,0.01,Snow,Light Snow,350,2013-04-18 06:53:00
2:43 AM,30.2,26.6,86,30.04,3.0,North,19.6,-,0.01,Snow,Light Snow,350,2013-04-18 07:43:00
2:53 AM,30.0,27.0,88,30.06,5.0,North,21.9,-,0.01,,Overcast,350,2013-04-18 07:53:00
3:43 AM,30.2,26.6,86,30.02,5.0,North,18.4,-,0.00,Snow,Light Snow,350,2013-04-18 08:43:00
3:53 AM,30.0,27.0,88,30.05,6.0,North,17.3,-,0.00,,Overcast,360,2013-04-18 08:53:00
4:22 AM,30.2,26.6,86,30.04,9.0,North,12.7,-,N/A,,Overcast,350,2013-04-18 09:22:00
4:53 AM,30.9,27.0,85,30.06,10.0,North,18.4,-,0.00,,Overcast,350,2013-04-18 09:53:00
5:21 AM,30.2,26.6,86,30.03,2.5,North,18.4,-,0.00,Snow,Light Snow,350,2013-04-18 10:21:00
5:48 AM,30.2,26.6,86,30.01,1.5,North,18.4,-,0.00,Snow,Light Snow,350,2013-04-18 10:48:00
5:53 AM,30.0,27.0,88,30.04,1.2,North,17.3,-,0.00,Snow,Light Snow,350,2013-04-18 10:53:00
6:22 AM,30.2,26.6,86,30.00,2.0,NNW,18.4,-,0.00,Snow,Light Snow,340,2013-04-18 11:22:00
6:53 AM,30.0,27.0,88,30.03,2.0,North,19.6,-,0.00,Snow,Light Snow,350,2013-04-18 11:53:00
7:30 AM,30.2,26.6,86,29.98,3.0,North,17.3,-,0.00,Snow,Light Snow,350,2013-04-18 12:30:00
7:53 AM,30.9,27.0,85,30.01,5.0,North,16.1,-,0.00,,Overcast,350,2013-04-18 12:53:00
8:53 AM,30.9,28.0,89,30.01,8.0,North,18.4,-,0.00,,Overcast,350,2013-04-18 13:53:00
9:53 AM,32.0,28.0,85,29.99,9.0,North,18.4,-,N/A,,Overcast,360,2013-04-18 14:53:00
10:53 AM,32.0,28.0,85,29.97,8.0,North,20.7,-,N/A,,Overcast,360,2013-04-18 15:53:00
11:53 AM,34.0,28.9,82,29.94,10.0,North,20.7,-,N/A,,Overcast,360,2013-04-18 16:53:00
12:24 PM,35.6,28.4,75,29.90,10.0,North,20.7,26.5,N/A,,Overcast,360,2013-04-18 17:24:00
12:32 PM,35.6,28.4,75,29.90,10.0,North,19.6,27.6,N/A,,Overcast,360,2013-04-18 17:32:00
12:46 PM,35.6,28.4,75,29.91,10.0,North,15.0,26.5,N/A,,Overcast,350,2013-04-18 17:46:00
12:53 PM,35.1,30.0,82,29.94,10.0,NNW,19.6,26.5,N/A,,Overcast,340,2013-04-18 17:53:00
1:01 PM,35.6,30.2,81,29.91,10.0,North,18.4,-,N/A,,Overcast,350,2013-04-18 18:01:00
1:27 PM,35.6,30.2,81,29.89,10.0,North,17.3,-,N/A,,Overcast,350,2013-04-18 18:27:00
1:53 PM,36.0,27.0,70,29.93,10.0,North,26.5,34.5,N/A,,Overcast,350,2013-04-18 18:53:00
2:53 PM,36.0,28.0,73,29.91,10.0,North,25.3,31.1,N/A,,Overcast,350,2013-04-18 19:53:00
3:53 PM,37.0,28.9,73,29.90,10.0,NNW,25.3,-,N/A,,Partly Cloudy,340,2013-04-18 20:53:00
4:53 PM,36.0,26.1,67,29.88,9.0,NNW,28.8,35.7,0.00,Snow,Light Snow,340,2013-04-18 21:53:00
5:53 PM,36.0,26.1,67,29.89,10.0,NNW,25.3,-,0.00,,Clear,340,2013-04-18 22:53:00
6:53 PM,35.1,26.1,70,29.89,10.0,NNW,25.3,33.4,N/A,,Clear,340,2013-04-18 23:53:00
7:53 PM,34.0,24.1,67,29.88,10.0,NNW,23.0,31.1,N/A,,Scattered Clouds,340,2013-04-19 00:53:00
8:53 PM,33.1,24.1,70,29.88,10.0,NNW,20.7,-,N/A,,Clear,330,2013-04-19 01:53:00
9:53 PM,32.0,23.0,69,29.89,10.0,NNW,23.0,-,N/A,,Clear,340,2013-04-19 02:53:00
10:53 PM,30.9,23.0,72,29.88,10.0,NNW,20.7,-,N/A,,Clear,340,2013-04-19 03:53:00
11:53 PM,30.9,23.0,72,29.87,10.0,NNW,18.4,-,N/A,,Clear,340,2013-04-19 04:53:00